Weather History for Indianapolis, IN

Change the Weather History Date:

Thursday, January 17, 2013

  Actual Average Record
Temperature  
Mean Temperature 31 °F 28 °F  
Max Temperature 40 °F 35 °F 67 °F (1952)
Min Temperature 21 °F 20 °F -20 °F (1977)
Degree Days  
Heating Degree Days 34 37  
Month to date heating degree days 583 629  
Since 1 July heating degree days 2564 2705  
Cooling Degree Days 0 0  
Month to date cooling degree days 0 0  
Year to date cooling degree days 0 0  
Moisture  
Dew Point 24 °F    
Average Humidity 71    
Maximum Humidity 85    
Minimum Humidity 56    
Precipitation  
Precipitation 0.00 in 0.09 in 1.11 in (1969)
Month to date precipitation 3.85 1.55  
Year to date precipitation 3.85 1.55  
Snow  
Snow 0.00 in 0.30 in 4.40 in (1978)
Month to date snowfall 0.3 4.6  
Since 1 July snowfall 15.3 12.6  
Snow Depth 0.00 in    
Sea Level Pressure  
Sea Level Pressure 30.25 in    
Wind  
Wind Speed 8 mph (NW)    
Max Wind Speed 22 mph    
Max Gust Speed 25 mph    
Visibility 10 miles    
Events      
T = Trace of Precipitation, MM = Missing Value Source: NWS Daily Summary

Daily Weather History Graph

Daily Weather History Graph

Search for Another Location

Airport:

Trip Planner

Search our weather history database for the weather conditions in past years. The results will help you decide how hot, cold, wet, or windy it might be!

Date:

Astronomy

Jan. 17, 2013 Rise Set
Actual Time 8:03 AM EST 5:47 PM EST
Civil Twilight 7:34 AM EST 6:17 PM EST
Nautical Twilight 7:00 AM EST 6:50 PM EST
Astronomical Twilight 6:28 AM EST 7:22 PM EST
Moon 11:11 AM EST (1/17) No Moon Set
Length of Visible Light 10h 43m
Length of Day
9h 44m
Waxing Crescent, 37% of the Moon is Illuminated
Jan 17
Waxing Crescent
Jan 18
First Quarter
Jan 26
Full
Feb 3
Last Quarter
Feb 10
New

Hourly Weather History & Observations

Time (EST) Temp. Windchill Dew Point Humidity Pressure Visibility Wind Dir Wind Speed Gust Speed Precip Events Conditions
12:54 AM 28.0 °F 20.0 °F 23.0 °F 81% 30.12 in 10.0 mi WSW 8.1 mph - N/A   Mostly Cloudy
1:54 AM 27.0 °F 20.5 °F 23.0 °F 85% 30.12 in 10.0 mi WSW 5.8 mph - N/A   Overcast
2:54 AM 27.0 °F 21.6 °F 23.0 °F 85% 30.14 in 10.0 mi WSW 4.6 mph - N/A   Overcast
3:54 AM 28.0 °F 20.8 °F 23.0 °F 81% 30.15 in 10.0 mi SSW 6.9 mph - N/A   Overcast
4:54 AM 28.9 °F 23.9 °F 25.0 °F 85% 30.15 in 10.0 mi West 4.6 mph - N/A   Overcast
5:54 AM 30.0 °F 24.1 °F 25.0 °F 82% 30.16 in 10.0 mi WSW 5.8 mph - N/A   Overcast
6:54 AM 30.0 °F - 25.0 °F 82% 30.19 in 10.0 mi Calm Calm - N/A   Overcast
7:18 AM 30.2 °F 26.7 °F 26.6 °F 86% 30.18 in 10.0 mi West 3.5 mph - N/A   Overcast
7:54 AM 30.9 °F - 26.1 °F 82% 30.20 in 10.0 mi Calm Calm - N/A   Overcast
8:08 AM 30.2 °F 26.7 °F 26.6 °F 86% 30.18 in 10.0 mi NW 3.5 mph - N/A   Mostly Cloudy
8:54 AM 32.0 °F 28.7 °F 27.0 °F 82% 30.23 in 10.0 mi NNW 3.5 mph - N/A   Mostly Cloudy
9:23 AM 32.0 °F 25.6 °F 26.6 °F 80% 30.22 in 9.0 mi North 6.9 mph - N/A   Scattered Clouds
9:45 AM 33.8 °F 27.0 °F 28.4 °F 81% 30.23 in 9.0 mi North 8.1 mph - N/A   Mostly Cloudy
9:54 AM 34.0 °F 26.6 °F 28.0 °F 79% 30.26 in 9.0 mi North 9.2 mph - N/A   Mostly Cloudy
10:35 AM 35.6 °F 28.6 °F 28.4 °F 75% 30.24 in 9.0 mi North 9.2 mph - N/A   Partly Cloudy
10:54 AM 36.0 °F 28.5 °F 28.9 °F 76% 30.26 in 8.0 mi North 10.4 mph - N/A   Partly Cloudy
11:54 AM 39.0 °F 33.4 °F 28.9 °F 67% 30.25 in 10.0 mi North 8.1 mph - N/A   Partly Cloudy
12:54 PM 39.0 °F 32.3 °F 28.9 °F 67% 30.23 in 10.0 mi NNW 10.4 mph - N/A   Scattered Clouds
1:54 PM 39.0 °F 31.8 °F 27.0 °F 62% 30.22 in 10.0 mi NW 11.5 mph - N/A   Partly Cloudy
2:54 PM 37.9 °F 28.2 °F 25.0 °F 60% 30.23 in 10.0 mi NNW 18.4 mph - N/A   Partly Cloudy
3:54 PM 37.0 °F 27.0 °F 24.1 °F 59% 30.24 in 10.0 mi NW 18.4 mph - N/A   Partly Cloudy
4:54 PM 36.0 °F 26.0 °F 21.9 °F 57% 30.27 in 10.0 mi NNW 17.3 mph - N/A   Partly Cloudy
5:54 PM 32.0 °F 22.5 °F 19.9 °F 61% 30.30 in 10.0 mi NNW 12.7 mph - N/A   Partly Cloudy
6:54 PM 30.0 °F 21.1 °F 17.1 °F 59% 30.33 in 10.0 mi NNW 10.4 mph - N/A   Clear
7:54 PM 28.0 °F 20.0 °F 18.0 °F 66% 30.36 in 10.0 mi North 8.1 mph - N/A   Clear
8:54 PM 26.1 °F 16.8 °F 16.0 °F 66% 30.40 in 10.0 mi NNW 9.2 mph - N/A   Clear
9:54 PM 25.0 °F 16.3 °F 16.0 °F 69% 30.42 in 10.0 mi North 8.1 mph - N/A   Clear
10:54 PM 23.0 °F 14.7 °F 15.1 °F 72% 30.43 in 10.0 mi NNW 6.9 mph - N/A   Clear
11:54 PM 21.9 °F 17.2 °F 15.1 °F 75% 30.44 in 10.0 mi NW 3.5 mph - N/A   Clear